Starlink 5365

operational
NORAD ID: 55498 Int'l Des: 2023-015 Owner: SPXS Country: US Constellation: starlink
LEOCIRCULAR

About Starlink 5365

Description loading...

Live Position

Loading 3D Globe...

Upcoming Passes

Altitude History

Altitude vs Time

uPlot chart will show altitude changes over time

Two-Line Element Set

1 55498U 23015BB 25261.21054090 .00000597 00000-0 59271-4 0 9998
2 55498 43.0032 195.7487 0001092 260.1363 99.9356 15.02539369144664
Epoch: Sep 18, 2025 • Age: 17 hours

Current Status

Altitude 569.9 km
Velocity 7.58 km/s
Sub-Earth Point -38.69°S, 101.01°E
Launch Date Feb 2, 2023
Age 2.6 years
Type internet

Technical Details

Classification Payload
Mass 305.00 kg
Dry Mass 290.00 kg
Total Mass 305.00 kg
Length 0.20 m
Diameter 2.80 m
Span 9.00 m
Shape Box + pan
Manufacturer SPXS
Bus Type Starlink
Phase Status In Orbit
Owner/State SPXS/US

Large Constellations

Loading constellations...